[[{"header":{"parameterUnit":"m.s-1","parameterCategory":1,"la1":30.2991,"la2":30.254,"lo1":-89.0895,"lo2":-89.0444,"dy":0.0017,"dx":0.0017,"nx":28,"ny":28,"refTime":"2024-04-07T03:00:00:Z","depth":0,"parameterNumber":2,"parameterNumberName":"U-component_of_WINDS"},"data":[0,0,0,0,0,0,0,0,0,0,0,0,0,0,0,0,0,0,0,0,0,0,0,0,0,0,0,0,0,0,0,0,0,0,0,0,0,0,0,0,0,0,0,0,0,0,0,0,0,0,0,0,0,0,0,0,0,0,-1.8472,-1.8472,0,-1.8449,-1.8448,-1.8448,-1.8379,-1.8378,-1.8376,-1.8375,-1.8352,-1.8353,-1.8354,0,0,0,0,0,0,0,0,0,0,0,0,0,-1.846,-1.846,-1.8472,-1.8472,-1.8472,-1.8449,-1.8448,-1.8448,-1.838,-1.8378,-1.8376,-1.8374,-1.8352,-1.8353,-1.8354,0,0,0,0,0,0,0,0,0,0,0,0,0,-1.8454,-1.8461,-1.8472,-1.8435,-1.8431,-1.8449,-1.8448,-1.8448,-1.838,-1.8378,-1.8375,-1.8373,-1.8352,-1.8353,-1.8354,-1.8407,0,0,-1.8358,-1.8358,0,0,0,0,0,0,0,0,-1.8454,-1.8454,-1.8441,-1.8437,-1.8433,-1.8415,-1.8436,-1.8434,-1.8381,-1.84,-1.8375,-1.8372,-1.8375,-1.8374,-1.8375,-1.8406,-1.8405,-1.8358,-1.8359,-1.8359,-1.836,0,0,0,0,0,0,0,-1.8455,-1.8455,-1.8463,-1.8441,-1.8436,-1.842,-1.8416,-1.8435,-1.84,-1.8398,-1.8393,-1.8391,-1.8373,-1.8374,-1.8374,-1.8404,-1.8358,-1.8359,-1.836,-1.836,-1.8477,-1.8479,0,0,0,0,0,0,-1.846,-1.8456,-1.8464,-1.8462,-1.8438,-1.8422,-1.8418,-1.8423,-1.84,-1.8394,-1.8393,-1.8388,-1.8373,-1.8372,-1.8373,-1.8432,-1.8359,-1.836,-1.8361,-1.8475,-1.8478,-1.848,0,0,0,0,0,0,-1.846,-1.8462,-1.8465,-1.8458,-1.8457,-1.8424,-1.8431,-1.8424,-1.8425,-1.8396,-1.839,-1.84,-1.8371,-1.8371,-1.8399,-1.8431,-1.8361,-1.8362,-1.8472,-1.8476,-1.8479,-1.8552,0,0,0,0,0,0,-1.846,-1.8462,-1.8481,-1.8459,-1.8457,-1.8491,-1.8432,-1.8425,-1.8427,-1.842,-1.8401,-1.8396,-1.8369,-1.8397,-1.84,-1.8431,-1.8363,-1.8469,-1.8473,-1.8478,-1.8547,-1.8558,-1.8568,0,0,0,0,0,-1.846,-1.8504,-1.8483,-1.8484,-1.8481,-1.8493,-1.8492,-1.846,-1.843,-1.8449,-1.843,-1.8397,-1.8427,-1.8401,-1.8403,-1.8435,-1.8467,-1.8472,-1.8477,-1.8542,-1.8556,-1.8567,0,0,0,0,0,0,-1.8532,-1.85,-1.8476,-1.8514,-1.8506,-1.8481,-1.8504,-1.8475,-1.8477,-1.847,-1.8431,-1.8427,-1.8461,-1.845,-1.8422,-1.8484,-1.8441,-1.8447,-1.849,-1.8502,-1.8512,-1.8514,-1.8364,0,0,0,0,0,-1.8552,-1.8564,-1.8535,-1.8571,-1.8569,-1.8537,-1.8541,-1.8517,-1.8508,-1.8505,-1.8488,-1.8482,-1.8489,-1.8495,-1.8501,-1.8545,-1.854,-1.8569,-1.8579,-1.8587,-1.8593,-1.8615,-1.8628,-1.8498,-1.8498,-1.8498,0,0,-1.8594,-1.8578,-1.8588,-1.8585,-1.8576,-1.859,-1.8535,-1.8552,-1.8562,-1.8508,-1.8532,-1.852,-1.851,-1.8546,-1.8561,-1.8539,-1.8628,-1.8594,-1.8601,-1.8602,-1.8622,-1.8635,-1.8646,-1.8501,-1.8501,-1.85,0,0,-1.8676,-1.8666,-1.8694,-1.8686,-1.8674,-1.8653,-1.866,-1.8639,-1.8628,-1.8652,-1.8612,-1.8623,-1.8638,-1.8632,-1.8631,-1.8711,-1.868,-1.8714,-1.8768,-1.879,-1.8801,-1.8809,-1.8838,-1.8849,-1.872,-1.872,-1.8721,0,-1.873,-1.8748,-1.8712,-1.8731,-1.8732,-1.8683,-1.8711,-1.8706,-1.8696,-1.8698,-1.8672,-1.8689,-1.8679,-1.8713,-1.8732,-1.8733,-1.874,-1.8716,-1.8802,-1.881,-1.8818,-1.8845,-1.8856,-1.8725,-1.8724,-1.8724,-1.8723,0,-1.8815,-1.8828,-1.8852,-1.8843,-1.8846,-1.887,-1.8838,-1.8846,-1.8821,-1.8803,-1.8828,-1.8814,-1.8816,-1.8822,-1.8799,-1.8853,-1.8839,-1.8809,-1.8764,-1.8835,-1.886,-1.887,-1.8731,-1.8729,-1.8728,-1.8727,0,0,-1.8942,-1.8912,-1.8922,-1.8917,-1.89,-1.891,-1.8931,-1.8932,-1.8939,-1.8935,-1.8952,-1.8965,-1.8936,-1.8935,-1.8911,-1.8931,-1.8995,-1.8897,-1.8897,-1.8916,-1.9053,-1.9076,-1.9089,-1.8974,-1.8976,-1.8978,-1.9054,0,-1.902,-1.9055,-1.9023,-1.9064,-1.9076,-1.9029,-1.9048,-1.904,-1.9024,-1.9032,-1.9014,-1.9024,-1.8985,-1.8984,-1.9002,-1.8984,-1.9022,-1.8978,-1.899,-1.8991,-1.8994,-1.9102,-1.9126,-1.9199,-1.9064,-1.9065,-1.9066,0,-1.9116,-1.9114,-1.9156,-1.9136,-1.914,-1.9157,-1.9155,-1.9163,-1.9153,-1.914,-1.9139,-1.9108,-1.9129,-1.9086,-1.9113,-1.9083,-1.9087,-1.9079,-1.9081,-1.9081,-1.9033,-1.9104,-1.9221,-1.9232,-1.9081,-1.908,-1.9079,0,-1.9204,-1.9213,-1.9239,-1.9236,-1.9213,-1.9226,-1.9217,-1.9205,-1.9207,-1.9206,-1.9207,-1.9209,-1.921,-1.9212,-1.9183,-1.9154,-1.9214,-1.9169,-1.9204,-1.9205,-1.9218,-1.9218,-1.9338,-1.9221,-1.9221,-1.9221,-1.9221,0,-1.9294,-1.9322,-1.9278,-1.9294,-1.9324,-1.9287,-1.9318,-1.9304,-1.9293,-1.9306,-1.9266,-1.928,-1.9241,-1.925,-1.9228,-1.9254,-1.9255,-1.9245,-1.9239,-1.9248,-1.925,-1.925,-1.9244,-1.9224,-1.9223,-1.9223,-1.9222,0,-1.9398,-1.937,-1.9395,-1.9371,-1.9365,-1.9388,-1.9368,-1.9382,-1.9362,-1.9379,-1.9381,-1.9352,-1.936,-1.9332,-1.9336,-1.9321,-1.9359,-1.9345,-1.9363,-1.9358,-1.9395,-1.9392,-1.9519,-1.9534,-1.9408,-1.941,-1.9411,0,-1.9458,-1.9478,-1.9455,-1.946,-1.9453,-1.9463,-1.9465,-1.943,-1.9434,-1.9423,-1.9439,-1.9444,-1.9446,-1.9463,-1.9442,-1.9445,-1.943,-1.9474,-1.943,-1.9439,-1.9431,-1.943,-1.9431,-1.9484,-1.9485,-1.9486,-1.9487,0,-1.9566,-1.9551,-1.9555,-1.9555,-1.9558,-1.9556,-1.9552,-1.9559,-1.9521,-1.9527,-1.9535,-1.9537,-1.9541,-1.9547,-1.9545,-1.9537,-1.9506,-1.9501,-1.951,-1.952,-1.9529,-1.9524,-1.9387,-1.9499,-1.9498,-1.9497,-1.9496,-1.9496,-1.9649,-1.9665,-1.9651,-1.9657,-1.965,-1.9646,-1.9658,-1.964,-1.9646,-1.9646,-1.9625,-1.9637,-1.9626,-1.9621,-1.9615,-1.9625,-1.9604,-1.9616,-1.9619,-1.9623,-1.9629,-1.9528,-1.9624,-1.9624,-1.9624,-1.9623,-1.9623,0,-1.9756,-1.9744,-1.975,-1.9745,-1.9749,-1.9719,-1.9712,-1.9719,-1.973,-1.9722,-1.9724,-1.9734,-1.9739,-1.9719,-1.9721,-1.9733,-1.9719,-1.9734,-1.9733,-1.9732,-1.9647,-1.964,-1.9746,-1.9746,-1.9746,-1.9746,-1.9745,-1.9745,-1.9812,-1.9836,-1.9819,-1.984,-1.9828,-1.9839,-1.9838,-1.9834,-1.9828,-1.9839,-1.9843,-1.983,-1.9817,-1.9818,-1.9821,-1.9815,-1.9818,-1.9839,-1.9828,-1.975,-1.9738,-1.9726,-1.9719,-1.984,-1.984,-1.9911,-1.9912,-1.9913]},{"header":{"parameterUnit":"m.s-1","parameterCategory":1,"la1":30.2991,"la2":30.254,"lo1":-89.0895,"lo2":-89.0444,"dy":0.0017,"dx":0.0017,"nx":28,"ny":28,"refTime":"2024-04-07T03:00:00:Z","depth":0,"parameterNumber":3,"parameterNumberName":"V-component_of_WINDS"},"data":[0,0,0,0,0,0,0,0,0,0,0,0,0,0,0,0,0,0,0,0,0,0,0,0,0,0,0,0,0,0,0,0,0,0,0,0,0,0,0,0,0,0,0,0,0,0,0,0,0,0,0,0,0,0,0,0,0,0,2.9009,2.9009,0,2.9047,2.9047,2.9048,2.9019,2.9018,2.9017,2.9016,2.905,2.9052,2.9055,0,0,0,0,0,0,0,0,0,0,0,0,0,2.8907,2.8909,2.9009,2.9009,2.901,2.9047,2.9047,2.9048,2.9019,2.9018,2.9016,2.9015,2.905,2.9052,2.9055,0,0,0,0,0,0,0,0,0,0,0,0,0,2.8949,2.891,2.9009,2.9,2.9,2.9047,2.9047,2.9048,2.902,2.9018,2.9016,2.9014,2.9049,2.9052,2.9055,2.9111,0,0,2.9065,2.9066,0,0,0,0,0,0,0,0,2.8947,2.8953,2.9001,2.9001,2.9001,2.9026,2.9024,2.9069,2.902,2.9012,2.9016,2.9013,2.9044,2.9047,2.9058,2.9113,2.9114,2.9065,2.9067,2.9068,2.9069,0,0,0,0,0,0,0,2.8944,2.8951,2.9024,2.9002,2.9001,2.8993,2.8997,2.9033,2.9038,2.9013,2.9011,2.9016,2.9043,2.9055,2.9059,2.9115,2.9065,2.9068,2.9069,2.9071,2.9216,2.9217,0,0,0,0,0,0,2.8942,2.8949,2.9022,2.9025,2.8969,2.8996,2.9001,2.902,2.9037,2.9038,2.9017,2.9014,2.9051,2.9055,2.906,2.9125,2.9068,2.9071,2.9073,2.9214,2.9216,2.9218,0,0,0,0,0,0,2.894,2.8949,2.9021,2.8986,2.8995,2.9,2.9022,2.9022,2.9034,2.9041,2.9041,2.9029,2.905,2.9055,2.9098,2.9126,2.9072,2.9075,2.9211,2.9214,2.9217,2.9258,0,0,0,0,0,0,2.8937,2.8949,2.8971,2.8987,2.8997,2.906,2.9024,2.9024,2.904,2.9036,2.9052,2.9053,2.9049,2.9094,2.9102,2.9129,2.9078,2.9209,2.9213,2.9216,2.9254,2.9262,2.9268,0,0,0,0,0,2.8934,2.898,2.8972,2.8981,2.9025,2.9062,2.9067,2.9063,2.9042,2.9064,2.9068,2.9052,2.9122,2.9099,2.9107,2.9136,2.9207,2.9212,2.9216,2.9251,2.926,2.9268,0,0,0,0,0,0,2.8966,2.8982,2.8973,2.9027,2.9043,2.9057,2.9084,2.9073,2.9095,2.9091,2.9083,2.9087,2.9132,2.9139,2.9112,2.9191,2.9161,2.9167,2.9185,2.9194,2.9201,2.9198,2.908,0,0,0,0,0,2.898,2.901,2.9022,2.9067,2.9076,2.9079,2.9095,2.909,2.9107,2.9113,2.9121,2.9136,2.9161,2.9178,2.9202,2.9255,2.9257,2.9279,2.9286,2.9292,2.9297,2.9324,2.9334,2.9233,2.9233,2.9233,0,0,2.9007,2.902,2.9039,2.9074,2.9086,2.9116,2.9085,2.9118,2.9139,2.9118,2.9159,2.9165,2.9181,2.9229,2.9251,2.9236,2.9326,2.9298,2.9303,2.9305,2.933,2.934,2.9348,2.9236,2.9235,2.9235,0,0,2.9073,2.9086,2.9125,2.9138,2.9158,2.9159,2.9169,2.9184,2.9188,2.9229,2.9213,2.9238,2.9282,2.9294,2.9306,2.9376,2.9362,2.9384,2.9421,2.9448,2.9456,2.9463,2.9486,2.9495,2.939,2.939,2.939,0,2.9104,2.915,2.9146,2.918,2.9195,2.9179,2.9217,2.9229,2.9255,2.9265,2.9249,2.9304,2.9314,2.9364,2.9381,2.9392,2.9401,2.9382,2.9455,2.9462,2.9469,2.9491,2.95,2.9392,2.9392,2.9392,2.9391,0,2.9187,2.9218,2.9247,2.9274,2.9292,2.9328,2.9329,2.9348,2.9342,2.9344,2.9386,2.9398,2.9423,2.9435,2.9429,2.9483,2.9474,2.9457,2.9426,2.9481,2.9501,2.951,2.9396,2.9395,2.9394,2.9393,0,0,2.9272,2.9297,2.9307,2.9319,2.9339,2.9362,2.9397,2.9423,2.9439,2.9457,2.9485,2.9523,2.9507,2.9521,2.9516,2.954,2.9592,2.9519,2.9519,2.9531,2.9652,2.9663,2.9673,2.9583,2.9585,2.9586,2.965,0,2.9337,2.94,2.9397,2.9454,2.9482,2.9467,2.9497,2.9512,2.9515,2.9539,2.9542,2.9568,2.9547,2.9554,2.9577,2.9581,2.9616,2.9577,2.9607,2.9608,2.9602,2.9684,2.9697,2.9756,2.9658,2.9659,2.966,0,2.9422,2.9444,2.9504,2.952,2.9531,2.9559,2.9582,2.9605,2.9621,2.9622,2.9637,2.9628,2.9662,2.9632,2.9677,2.965,2.9663,2.9667,2.9669,2.967,2.9636,2.9686,2.9775,2.9783,2.9673,2.9672,2.9671,0,2.9476,2.9521,2.9563,2.9573,2.9593,2.9612,2.962,2.9635,2.965,2.967,2.968,2.9703,2.9715,2.9733,2.973,2.9709,2.9775,2.9746,2.9775,2.9776,2.9789,2.9788,2.9879,2.98,2.98,2.98,2.9799,0,2.9548,2.9585,2.9588,2.9613,2.9653,2.965,2.969,2.9696,2.9709,2.9734,2.9722,2.9745,2.9741,2.9764,2.9762,2.9799,2.9805,2.9805,2.9804,2.9805,2.9805,2.9812,2.9807,2.9802,2.9801,2.9801,2.9801,0,2.9616,2.9619,2.9663,2.9678,2.9682,2.9711,2.9723,2.9747,2.975,2.9781,2.9789,2.9792,2.9819,2.9818,2.9848,2.9847,2.9892,2.9886,2.9886,2.9885,2.9914,2.991,3.0012,3.0024,2.9938,2.9939,2.994,0,2.9661,2.9689,2.9707,2.9724,2.9734,2.9761,2.9777,2.9774,2.9791,2.9811,2.9832,2.9857,2.9878,2.9921,2.9925,2.9948,2.9942,2.9976,2.9945,2.9945,2.994,2.9938,2.994,2.9981,2.9982,2.9983,2.9984,0,2.974,2.974,2.9764,2.9789,2.9809,2.9828,2.9845,2.9859,2.9858,2.9878,2.9905,2.9921,2.9952,2.9977,2.9999,3.0006,2.9994,2.9993,3.0001,3.0002,3.0001,3.0,2.9901,2.9991,2.999,2.9989,2.9989,2.9989,2.9797,2.982,2.9837,2.9864,2.9877,2.9894,2.9916,2.9922,2.9945,2.9971,2.9968,2.9998,3.0012,3.004,3.005,3.0072,3.006,3.0072,3.0074,3.0077,3.0079,2.9998,3.0076,3.0076,3.0076,3.0076,3.0076,0,2.9874,2.9884,2.9909,2.9934,2.9955,2.9944,2.9962,2.998,3.0007,3.0022,3.0043,3.0074,3.0098,3.0105,3.0127,3.0144,3.0139,3.015,3.0148,3.0149,3.009,3.008,3.0154,3.0154,3.0154,3.0154,3.0154,3.0154,2.9916,2.9956,2.9958,3.0003,3.0012,3.0043,3.0054,3.0069,3.0081,3.0116,3.0137,3.0141,3.0152,3.0176,3.0197,3.0198,3.0207,3.0219,3.0218,3.0162,3.0154,3.0146,3.0137,3.0222,3.0222,3.0276,3.0276,3.0277]}]]